Regional Weather Roundup
Issued by NWS San Diego, CA

Home | Current Version | Previous Version | Text Only | Print | Product List | Glossary On
Versions: 1 2 3 4 5 6 7 8 9 10 11 12 13 14 15 16 17 18 19 20 21 22 23 24 25 26 27 28 29 30 31 32 33 34 35 36 37 38 39 40 41 42 43 44 45 46 47 48 49 50
000
ASUS46 KSGX 181111
RWRSGX

SAN DIEGO HOURLY WEATHER ROUNDUP
NATIONAL WEATHER SERVICE SAN DIEGO CA
400 AM PDT FRI AUG 18 2017

NOTE: "FAIR" INDICATES FEW OR NO CLOUDS BELOW 12,000 FEET WITH NO
SIGNIFICANT WEATHER AND/OR OBSTRUCTIONS TO VISIBILITY.

CAZ042-043-060-061-PZZ750-775-181200-

GREATER SAN DIEGO AREA

CITY           SKY/WX    TMP DP  RH WIND       PRES   REMARKS
SAN DIEGO AP   CLOUDY    69  62  78 CALM      29.99S
NATIONAL CITY    N/A     67  63  88 CALM      29.99F
IMPERIAL BEACH CLOUDY    67  61  81 NE3       29.98S
BROWN FIELD    PTCLDY    63  60  90 CALM      29.98S
MIRAMAR MCAS   CLOUDY    68  60  75 CALM      29.98R
MONTGOMERY FLD CLOUDY    68  61  78 VRB3      29.98S
GILLESPIE FLD    N/A     63  59  88 W3        29.98S

$$

NORTH SAN DIEGO COUNTY

CITY           SKY/WX    TMP DP  RH WIND       PRES   REMARKS
CAMP PENDLETON CLOUDY    54  32  43 CALM      29.97S
OCEANSIDE AP   MOCLDY    65  62  90 CALM      29.96S
OCEANSIDE HBR    N/A     64  61  90 E3        29.99S
VISTA            N/A     65  60  83 CALM      29.94F
CARLSBAD       CLOUDY    67  64  90 CALM      29.97S
DEL MAR          N/A     64  63  95 CALM      29.99S
LA JOLLA SCRIP   N/A     65  63  92 CALM      29.96S
FALLBROOK        N/A     64  64 100 CALM      29.97F
ESCONDIDO        N/A     64  60  87 CALM      29.98S
POWAY            N/A     63  58  84 CALM      29.98S

$$

EAST SAN DIEGO COUNTY

CITY           SKY/WX    TMP DP  RH WIND       PRES   REMARKS
RAMONA         FOG       59  59 100 CALM      29.99S VSB<1/4
SANTEE LAKES     N/A     61  58  90 CALM      29.96S
LA MESA          N/A     62  60  93 CALM      29.90S
JAMUL            N/A     58  55  91 CALM      29.97S
DESCANSO N       N/A     56  47  70 NE5       29.89S
CAMPO            N/A     53  48  83 NE7       30.00S

$$

ORANGE COUNTY AND THE LOS ANGELES BASIN

CITY           SKY/WX    TMP DP  RH WIND       PRES   REMARKS
JOHN WAYNE AP  CLOUDY    67  62  84 N3        29.96F
LAKE FOREST FR   N/A     63  58  86 CALM      29.85R
HUNTINGTON BCH   N/A     65  63  91 CALM      29.98S
LOS ALAMITOS   FAIR      63  60  89 CALM      29.96F
FULLERTON      CLEAR     66  61  84 CALM      29.96S
LONG BEACH     CLEAR     65  61  87 NE3       29.97S
L.A. AP        PTCLDY    66  63  90 SW6       29.97S
L.A. DOWNTOWN  PTCLDY    66  61  84 CALM      29.97S

$$

THE INLAND EMPIRE

CITY           SKY/WX    TMP DP  RH WIND       PRES   REMARKS
CORONA         CLEAR     63  61  93 CALM      29.98F
CHINO          CLEAR     64  59  83 W3        29.99S
ONTARIO        CLEAR     66  60  81 SW5       29.98S
SAN BERNARDINO FAIR      68  59  72 CALM      29.99S
RIVERSIDE AP   CLEAR     65  61  87 CALM      29.98S
MORENO VALLEY    N/A     64  58  82 CALM      28.09F
MARCH ARB      CLEAR     61  60  94 NW5       29.99S
HORSETHIEF CYN   N/A     62  53  72 N3        29.96F
PERRIS           N/A     65  60  81 CALM      29.97F
HEMET EAST       N/A     64  44  47 CALM      29.98
FRENCH VALLEY  FAIR      61  50  67 CALM      29.99F
TEMECULA         N/A     62  59  89 SE1       30.04S

$$

SAN BERNARDINO AND RIVERSIDE COUNTY MOUNTAINS

CITY           SKY/WX    TMP DP  RH WIND       PRES   REMARKS
BIG BEAR AP    CLEAR     43  32  65 CALM      30.28S
PINE COVE        N/A     64  42  45 CALM      29.88F

$$

SOUTHERN DESERT INCLUDING THE COACHELLA VALLEY

CITY           SKY/WX    TMP DP  RH WIND       PRES   REMARKS
PALM SPRINGS   CLEAR     79  54  41 S3        29.86R
THOUSAND PALMS   N/A     83  55  36 NW16      29.81S
PALM DESERT      N/A     78  57  47 CALM        N/A
THERMAL        CLEAR     82  55  39 N12       29.80R
BLYTHE         CLEAR     83  48  29 CALM      29.83S
IMPERIAL AP    CLEAR     81  53  37 SE3       29.80S
EL CENTRO NAS  CLEAR     77  52  41 E7        29.82S
YUMA AZ        CLEAR     83  65  54 S3        29.82S

$$

UPPER DESERT

CITY           SKY/WX    TMP DP  RH WIND       PRES   REMARKS
VICTORVILLE AP CLEAR     64  46  52 CALM      30.02S
HESPERIA         N/A     65  51  59 NE3       29.98F
PALMDALE       CLEAR     71  50  47 S6        30.00S
LANCASTER      CLEAR     68  50  52 NW3       29.98F
EDWARDS AFB    CLEAR     68  48  49 CALM      29.96S
DAGGETT        CLEAR     74  52  46 W9        29.95S
29 PALMS N     CLEAR     75  45  34 CALM      30.01S
NEEDLES        CLEAR     83  37  19 NW6       29.87R

$$

REGIONAL REPORTS

CITY           SKY/WX    TMP DP  RH WIND       PRES   REMARKS
SANTA BARBARA  CLEAR     61  59  93 N5        29.95S
SANDBERG       CLEAR     70  53  54 N18       30.12F
LAS VEGAS NV   CLEAR     84  39  20 SW5       29.95R
PHOENIX AZ     CLEAR     82  34  17 E8        29.89R
TIJUANA        PTCLDY    63  61  94 CALM      30.00F
ENSENADA NW      N/A     67  32  27 E2        29.95S

$$

OFFSHORE ISLANDS

CITY           SKY/WX    TMP DP  RH WIND       PRES   REMARKS
CATALINA ARPT  FOG       58  58 100 SW5       30.00S VSB 3/4
SAN NICOLAS IS MOCLDY   N/A N/A N/A W13       29.98S

$$

MARINE AND OFFSHORE BUOY REPORTS

STATION/POSITION SKY/WX   TEMP    WIND        PRES    VSBY  SWELL
                          AIR SEA DIR/SP/G                  HT/PER/DIR
                          (F)     (DEG/KT/KT) (MB)    (MI)  (FT/S/D)
TANNER BANKS               63 66  300/ 10/ 12 1015.4F         5/320/10
S CLEMENTE BASIN           65 70  300/ 10/ 14 1015.3F         3/220/14
SAN NICOLAS IS.               62                N/A           3/170/15
SO. S. ROSA ISLA           62 63  290/ 14/ 16 1015.0S         5/140/15
W. S. BARBARA CH           61 61  300/ 16/ 17 1014.3F         5/300/10
M. S. BARBARA CH           63 66  260/ 10/ 10 1015.1R         2/200/ 9
S. MONICA BASIN               70  340/  4/  6 1014.4F         3/180/15
S PEDRO CHANNEL               70                N/A           2/170/15
CMP PENDLETON NS              69                N/A           2/220/17
OCEANSIDE OFFSHR              69                N/A           2/180/15
TORREY PINES OTR              71                N/A           2/200/17
POINT LOMA SOUTH              71                N/A           3/200/17

$$





USA.gov is the U.S. government's official web portal to all federal, state and local government web resources and services.